(219871) = 2000 UR94 = 2002 CC286

Discovered at Socorro on 2002-02-10 by LINEAR.

Orbit

Orbit type: Main Belt

Note: WebGL enabled browser required.

epoch2023-09-13.0
epoch JD2460200.5
perihelion date2019-04-14.25779
perihelion JD2458587.75779
argument of perihelion (°)84.36094
ascending node (°)297.68531
inclination (°)5.10326
eccentricity0.0441112
perihelion distance (AU)2.6729037
Tisserand w.r.t. Jupiter3.3
ΔV w.r.t. Earth (km/sec)10.3
semimajor axis (AU)2.7962496
mean anomaly (°)339.94206
mean daily motion (°/day)0.21078510
aphelion distance (AU)2.920
period (years)4.68
P-vector [x]0.92338795
P-vector [y]0.30748845
P-vector [z]0.22979457
Q-vector [x]-0.37569990
Q-vector [y]0.84675403
Q-vector [z]0.37663935
absolute magnitude15.8
phase slope0.15
uncertainty0
referenceMPEC 2023-X152
observations used517
oppositions17
arc length (days)8946
first opposition used1999
last opposition used2023
residual rms (arc-secs)0.69
perturbers coarse indicatorM-v
perturbers precise indicator003Ek
first observation date used1999-06-09.0
last observation date used2023-12-06.0
computer nameMPCLINUX
JD of orbit computation2456966.842388
perihelion JD uncertainty (days)2.5323E-04
argument of perihelion uncertainty (°)7.3739E-05
ascending node uncertainty (°)5.0728E-05
inclination uncertainty (°)4.3152E-06
eccentricity uncertainty 4.0615E-08
perihelion distance uncertainty (AU)1.1317E-07
Minimum Orbit Intersection Distances (in AU)
for orbit epoch: 2460200.5, reference: E2023-XF2
Mercury2.32107
Venus1.95724
Earth1.68022
Mars1.16937
Jupiter2.30458
Saturn6.2939
Uranus15.5612
Neptune27.1848

Observations

535 total observations over interval: 1999 06 09.34200 – 2023 12 06.178963
These data are available for download (format description).

Date (UT) J2000 RA J2000 Dec Magn Location Ref
1999 06 09.34200 20 28 59.39 -20 10 00.9 20.8 V 691 – Steward Observatory, Kitt Peak-Spacewatch MPS 80071
1999 06 09.36405 20 28 59.11 -20 10 00.1 21.1 V 691 – Steward Observatory, Kitt Peak-Spacewatch MPS 80071
1999 06 09.38610 20 28 58.78 -20 09 59.5 21.4 V 691 – Steward Observatory, Kitt Peak-Spacewatch MPS 80071
2000 10 25.35434 02 53 15.06 +24 39 25.1 19.5   704 – Lincoln Laboratory ETS, New Mexico MPS 21662
2000 10 25.38652 02 53 13.38 +24 39 19.1 19.8   704 – Lincoln Laboratory ETS, New Mexico MPS 21662
2000 10 25.40113 02 53 12.60 +24 39 16.2 19.6   704 – Lincoln Laboratory ETS, New Mexico MPS 21662
2000 10 25.41529 02 53 11.85 +24 39 13.9 19.1   704 – Lincoln Laboratory ETS, New Mexico MPS 21662
2000 11 03.23096 02 45 15.69 +24 06 07.3 19.8   704 – Lincoln Laboratory ETS, New Mexico MPS 21662
2000 11 03.24444 02 45 14.87 +24 06 03.5 19.8   704 – Lincoln Laboratory ETS, New Mexico MPS 21662
2000 11 03.25793 02 45 14.24 +24 06 01.7 19.5   704 – Lincoln Laboratory ETS, New Mexico MPS 21662
2000 11 03.27142 02 45 13.45 +24 05 56.6 19.5   704 – Lincoln Laboratory ETS, New Mexico MPS 21662
2002 02 05.39744 09 52 14.43 +09 22 58.7 20.1   644 – Palomar Mountain/NEAT MPS 54792
2002 02 05.40824 09 52 13.85 +09 23 00.3 19.8   644 – Palomar Mountain/NEAT MPS 54792
2002 02 05.41866 09 52 13.31 +09 23 02.1 19.6   644 – Palomar Mountain/NEAT MPS 54792
2002 02 05.59018 09 52 04.28 +09 23 31.7 20.5   608 – Haleakala-AMOS MPS 54792
2002 02 05.60087 09 52 03.69 +09 23 32.8 20.2   608 – Haleakala-AMOS MPS 54792
2002 02 05.61160 09 52 03.11 +09 23 34.1 20.3   608 – Haleakala-AMOS MPS 54792
2002 02 10.30544 09 47 54.16 +09 37 08.2 19.6   704 – Lincoln Laboratory ETS, New Mexico MPS 54792
2002 02 10.31960 09 47 53.45 +09 37 11.5 20.3   704 – Lincoln Laboratory ETS, New Mexico MPS 54792
2002 02 10.33377 09 47 52.68 +09 37 14.3 20.2   704 – Lincoln Laboratory ETS, New Mexico MPS 54792
2002 02 10.36210 09 47 51.07 +09 37 19.7 20.1   704 – Lincoln Laboratory ETS, New Mexico MPS 54792
2002 02 11.30297 09 47 00.48 +09 40 09.9 19.4   704 – Lincoln Laboratory ETS, New Mexico MPS 54792
2002 02 11.30503 09 47 00.40 +09 40 10.8 20.1   704 – Lincoln Laboratory ETS, New Mexico MPS 54792
2002 02 11.31722 09 46 59.66 +09 40 12.7 19.8   704 – Lincoln Laboratory ETS, New Mexico MPS 54792
2002 02 11.31927 09 46 59.72 +09 40 11.8 20.6   704 – Lincoln Laboratory ETS, New Mexico MPS 54792
2002 02 11.33146 09 46 58.90 +09 40 15.0 19.9   704 – Lincoln Laboratory ETS, New Mexico MPS 54792
2002 02 11.33352 09 46 58.84 +09 40 14.5 20.4   704 – Lincoln Laboratory ETS, New Mexico MPS 54792
2002 02 11.34570 09 46 58.10 +09 40 17.2 20.2   704 – Lincoln Laboratory ETS, New Mexico MPS 54792
2002 02 11.34775 09 46 58.07 +09 40 15.2 20.2   704 – Lincoln Laboratory ETS, New Mexico MPS 54792
2002 02 11.35994 09 46 57.30 +09 40 19.9 19.4   704 – Lincoln Laboratory ETS, New Mexico MPS 54792
2002 02 11.36202 09 46 57.27 +09 40 19.8 20.1   704 – Lincoln Laboratory ETS, New Mexico MPS 54792
2002 02 16.36948 09 42 27.04 +09 55 55.2 19.6   644 – Palomar Mountain/NEAT MPS 54792
2002 02 16.38356 09 42 26.26 +09 55 57.8 19.3   644 – Palomar Mountain/NEAT MPS 54792
2002 02 16.40792 09 42 24.90 +09 56 02.0 19.6   644 – Palomar Mountain/NEAT MPS 54792
2004 08 08.32207 22 20 50.27 -06 01 12.8 19.3 R 699 – Lowell Observatory-LONEOS MPS 111103
2004 08 08.33506 22 20 49.65 -06 01 14.2   699 – Lowell Observatory-LONEOS MPS 111103
2004 08 08.34806 22 20 49.00 -06 01 16.6   699 – Lowell Observatory-LONEOS MPS 111103
2004 08 08.36102 22 20 48.42 -06 01 17.6   699 – Lowell Observatory-LONEOS MPS 111103
2004 08 12.30297 22 17 46.33 -06 09 46.0 19.6   704 – Lincoln Laboratory ETS, New Mexico MPS 123486
2004 08 12.31296 22 17 45.87 -06 09 47.5 19.6   704 – Lincoln Laboratory ETS, New Mexico MPS 123486
2004 08 12.32309 22 17 45.34 -06 09 48.6 19.5   704 – Lincoln Laboratory ETS, New Mexico MPS 123486
2004 08 12.33308 22 17 44.89 -06 09 50.3 19.4   704 – Lincoln Laboratory ETS, New Mexico MPS 123486
2004 08 22.33987 22 09 24.97 -06 37 02.8 19.3 V 691 – Steward Observatory, Kitt Peak-Spacewatch MPS 112177
2004 08 22.36806 22 09 23.47 -06 37 07.8 19.6 V 691 – Steward Observatory, Kitt Peak-Spacewatch MPS 112177
2004 08 22.39631 22 09 21.97 -06 37 12.9 19.7 V 691 – Steward Observatory, Kitt Peak-Spacewatch MPS 112177
2004 09 08.17760 21 55 37.91 -07 30 27.7 20.5 C 704 – Lincoln Laboratory ETS, New Mexico MPS 290132
2004 09 08.18852 21 55 37.34 -07 30 31.0 18.6 C 704 – Lincoln Laboratory ETS, New Mexico MPS 290132
2004 09 08.19956 21 55 36.99 -07 30 32.4 18.7 C 704 – Lincoln Laboratory ETS, New Mexico MPS 290132
2004 09 08.21060 21 55 36.42 -07 30 34.3 19.4 C 704 – Lincoln Laboratory ETS, New Mexico MPS 290132
2004 09 08.22151 21 55 35.85 -07 30 36.0 19.6 C 704 – Lincoln Laboratory ETS, New Mexico MPS 290132
2004 09 10.19280 21 54 10.30 -07 36 39.7 20.1   704 – Lincoln Laboratory ETS, New Mexico MPS 112802
2004 09 10.20455 21 54 09.72 -07 36 41.4 19.7   704 – Lincoln Laboratory ETS, New Mexico MPS 112802
2004 09 10.21597 21 54 09.27 -07 36 43.3 19.8   704 – Lincoln Laboratory ETS, New Mexico MPS 112802
2004 09 10.22728 21 54 08.71 -07 36 45.8 19.8   704 – Lincoln Laboratory ETS, New Mexico MPS 112802
2004 09 15.320627 21 50 45.521 -07 51 36.60 19.81 V 645 – Apache Point-Sloan Digital Sky Survey MPS 390312
2004 09 15.324099 21 50 45.383 -07 51 37.21 20.72   645 – Apache Point-Sloan Digital Sky Survey MPS 390312
2004 09 17.13200 21 49 40.73 -07 56 31.2 20.2 V 691 – Steward Observatory, Kitt Peak-Spacewatch MPS 112802
2004 09 17.15863 21 49 39.76 -07 56 35.6 19.9 V 691 – Steward Observatory, Kitt Peak-Spacewatch MPS 112802
2004 09 17.18618 21 49 38.77 -07 56 40.1 19.8 V 691 – Steward Observatory, Kitt Peak-Spacewatch MPS 112802
2004 09 18.19156 21 49 04.42 -07 59 17.3 18.8   704 – Lincoln Laboratory ETS, New Mexico MPS 114320
2004 09 18.20419 21 49 03.96 -07 59 19.7 19.9   704 – Lincoln Laboratory ETS, New Mexico MPS 114320
2004 09 18.22849 21 49 03.06 -07 59 23.3 19.5   704 – Lincoln Laboratory ETS, New Mexico MPS 114320
2004 09 18.24054 21 49 02.70 -07 59 24.2 20.4   704 – Lincoln Laboratory ETS, New Mexico MPS 114320
2004 09 21.17251 21 47 30.41 -08 06 40.1 19.3   704 – Lincoln Laboratory ETS, New Mexico MPS 114320
2004 09 21.18468 21 47 30.04 -08 06 42.6 20.0   704 – Lincoln Laboratory ETS, New Mexico MPS 114320
2004 09 21.19686 21 47 29.69 -08 06 44.2 19.8   704 – Lincoln Laboratory ETS, New Mexico MPS 114320
2004 09 21.21484 21 47 29.11 -08 06 47.1 19.6   704 – Lincoln Laboratory ETS, New Mexico MPS 114320
2004 10 04.11641 21 43 08.63 -08 29 45.1 19.5   644 – Palomar Mountain/NEAT MPS 117581
2004 10 04.13631 21 43 08.38 -08 29 46.7 19.3   644 – Palomar Mountain/NEAT MPS 117581
2004 10 04.15785 21 43 08.11 -08 29 48.3 19.8   644 – Palomar Mountain/NEAT MPS 117581
2005 12 05.26393 05 21 28.38 +28 14 04.3 19.8   704 – Lincoln Laboratory ETS, New Mexico MPS 153619
2005 12 05.27700 05 21 27.58 +28 14 02.7 19.8   704 – Lincoln Laboratory ETS, New Mexico MPS 153619
2005 12 05.29015 05 21 26.78 +28 14 01.7 19.7   704 – Lincoln Laboratory ETS, New Mexico MPS 153619
2005 12 05.30306 05 21 25.96 +28 13 59.2 19.7   704 – Lincoln Laboratory ETS, New Mexico MPS 153619
2005 12 10.23443 05 16 25.13 +28 02 59.8 19.5 V 691 – Steward Observatory, Kitt Peak-Spacewatch MPS 155259
2005 12 10.25554 05 16 23.80 +28 02 56.7 19.3 V 691 – Steward Observatory, Kitt Peak-Spacewatch MPS 155259
2005 12 10.27318 05 16 22.69 +28 02 54.2 19.2 V 691 – Steward Observatory, Kitt Peak-Spacewatch MPS 155259
2006 01 27.18032 04 45 43.70 +25 35 06.3 17.7 V G96 – Mt. Lemmon Survey MPS 161720
2006 01 27.19809 04 45 43.38 +25 35 02.4 19.3 V G96 – Mt. Lemmon Survey MPS 161720
2006 01 27.20546 04 45 43.30 +25 35 01.1 19.3 V G96 – Mt. Lemmon Survey MPS 161720
2006 02 02.24401 04 46 09.04 +25 21 13.9 20.2 V G96 – Mt. Lemmon Survey MPS 161720
2006 02 02.25087 04 46 09.15 +25 21 12.6 20.0 V G96 – Mt. Lemmon Survey MPS 161720
2006 02 02.26440 04 46 09.22 +25 21 11.5 19.9 V G96 – Mt. Lemmon Survey MPS 161720
2007 03 21.34588 11 23 13.76 -03 08 15.0 20.2   704 – Lincoln Laboratory ETS, New Mexico MPS 204522
